Weather in Los Angeles

United States     34°02′54″N   118°15′10″W
temp.,
°C
wind,
m/s
gust,
m/s
humid.,
%
clouds,
%
prec.,
mm/h
press.,
hPa
HPBL,
m
23 may, mon
mon2323:00+17s22670 0.0 1015457
02:00+16ssw22756 0.0 1014317
05:00+15s227810 0.0 1013312
08:00+16s22737 0.0 1014464
11:00+21sw32515 0.0 1013740
14:00+23sw53455 0.0 1011786
17:00+21wsw53545 0.0 1011587
20:00+19sw326232 0.0 1010497
24 may, tue
tue2423:00+18ssw22675 0.0 1011378
02:00+17s227130 0.0 1010330
05:00+16s11735 0.0 1010229
08:00+18sw11655 0.0 1010277
11:00+24sw31415 0.0 1009538
14:00+25wsw53415 0.0 1009560
17:00+24wsw43445 0.0 1008535
20:00+21sw32545 0.0 1009403
25 may, wed
wed2523:00+20ssw22600 0.0 1010332
02:00+19sw11650 0.0 1010252
05:00+18sw11670 0.0 1009151
08:00+20sw21590 0.0 1010240
11:00+25sw32410 0.0 1010574
14:00+27sw42385 0.0 1010680
17:00+25sw43442 0.0 1010663
20:00+22sw32550 0.0 1011465
26 may, thu
thu2623:00+20sw21630 0.0 1012385
02:00+19s11660 0.0 1011306
05:00+18ssw11701 0.0 1012244
08:00+20s226487 0.0 1013415
11:00+24ssw324617 0.0 1014767
14:00+27sw53370 0.0 1013921
17:00+25sw43415 0.0 1012741
20:00+20wsw3362100 0.0 1014431
27 may, fri
fri2723:00+19wsw3266100 0.0 1015413
02:00+18ssw216992 0.0 1014391
05:00+18wsw21735 0.0 1014255
08:00+19sw216736 0.0 1015450
11:00+23sw324794 0.0 1015813
14:00+25wsw533911 0.0 1014817
17:00+23wsw5448100 0.0 1013536
20:00+20sw4360100 0.0 1013379